Starlink 30769

operational
NORAD ID: 58138 Int'l Des: 2023-162 Owner: SPXS Country: US Constellation: starlink
LEOCIRCULAR

Starlink 30769について

説明を読み込み中...

リアルタイム位置

3D地球を読み込み中...

次回通過

高度履歴

Altitude vs Time

uPlot chart will show altitude changes over time

軌道要素

1 58138U 23162W 25304.50875639 .00000250 00000-0 33604-4 0 9993
2 58138 43.0025 115.3677 0001295 260.5194 99.5502 15.02535573112869
Epoch: Oct 31, 2025 • Age: 15 hours

現在のステータス

高度 558.6 km
速度 7.59 km/s
衛星直下点 18.38°N, 178.13°W
打ち上げ日 Oct 22, 2023
運用期間 2 years
タイプ internet

技術仕様

分類 Payload
質量 730.00 kg
乾燥質量 700.00 kg
総質量 730.00 kg
長さ 0.30 m
直径 4.10 m
スパン 29.00 m
形状 Box + pan
製造者 SPXS
バスタイプ Starlink V2M
フェーズステータス In Orbit
所有者/国 SPXS/US

大規模コンステレーション

Loading constellations...